www.pogodaiklimat.ru

Погода и климат >> Архив погоды >> Аргентина >> Корриентес


ПОГОДА в Корриентесе

  • Прогноз погоды в Корриентесе
  • Монитор погоды в Корриентесе

АРХИВ ПОГОДЫ в Корриентесе

Время (UTC), дата Ветер
(напр.,м/с)
 
Видим.   Явления Облачность Т
(С)
Тd
(С)
f
(%)
Тe
(С)
Тes
(С)
Комфортность P
(гПа)
Po
(гПа)
Тmin
(С)
Tmax
(С)
R
(мм)
R24
(мм)
S
(см)
18 16.07 СВ 3 9000 м дым 3/0
[Cs]
+20.4 +7.3 43 +22 +28 комфорт 1021.7 1014.4
21 16.07 В 3 8000 м дым 3/0
[Ci fib]
+18.3 +7.3 49 +19 +19 1021.4 1013.8
00 17.07 В 3 8000 м дым ясно +12.7 +5.5 62 +12 +12 1022.8 1015.3 +11.2 +20.8
03 17.07 ЮВ 2 10 км ясно +9.8 +5.2 73 +9 +9 1023.4 1016.0
06 17.07 ЮВ 2 10 км ясно +7.0 +4.2 82 +5 +5 1023.3 1015.8
09 17.07 ЮВ 1 6000 м дымка ясно +6.1 +4.7 91 +5 +5 1022.6 1015.2
12 17.07 В 2 8000 м дымка {туман} ясно +9.0 +6.4 84 +7 +9 1023.8 1016.2 +4.4 +12.7
15 17.07 В 4 10 км ясно +17.0 +6.1 49 +17 +23 1023.3 1015.8
18 17.07 С 2 8000 м дым ясно +20.6 +7.6 43 +23 +30 комфорт 1020.2 1012.8
21 17.07 В 3 7000 м дым ясно +19.2 +7.6 47 +20 +20 1018.8 1011.3
00 18.07 В 2 10 км ясно +14.2 +8.9 70 +14 +14 1018.9 1011.4 +8.8 +21.5
03 18.07 В 3 10 км ясно +12.9 +9.8 81 +12 +12 1019.0 1011.6
06 18.07 В 4 10 км 1/0
[Ac cast]
+13.2 +9.9 80 +12 +12 1017.5 1010.1
09 18.07 В 3 10 км 8/0
[Ac cast]
+13.3 +9.8 79 +12 +12 1016.3 1008.9
12 18.07 СВ 3 10 км 3/0
[Ac cast]
+14.6 +9.6 72 +14 +15 1017.8 1010.4 +12.5 +14.6
15 18.07 СВ 5 10 км 4/0
[Ac cast]
+20.8 +10.2 51 +23 +26 комфорт 1019.1 1011.7
18 18.07 В 3 10 км 9/1 1350 м
[Sc Ac As]
+21.7 +11.2 51 +24 +26 комфорт 1017.4 1010.0
21 18.07 В 3 7000 м гроза без осадков 10/3 1200 м
[Cb cap Ac As]
+20.2 +12.7 62 +23 +23 комфорт 1017.9 1010.5
00 19.07 СВ 3 10 км гроза без осадков 10/4 1200 м
[Cb cap Ac As]
+17.4 +14.7 84 +18 +18 1018.9 1011.4 +14.4 +21.9
03 19.07 ЮВ 1 10 км {гроза} 10/4 1200 м
[Sc Ac As]
+16.4 +15.0 91 +17 +17 1020.0 1012.6
06 19.07 Ю 2 6000 м в посл. час гроза {дождь} туман 10/4 1050 м
[Sc Ac As]
+15.7 +15.2 97 +16 +16 1019.8 1012.4 3
09 19.07 В 2 5000 м дымка 10/3 1050 м
[Sc Ac As]
+15.6 +14.9 96 +16 +16 1018.2 1010.8
12 19.07 В 3 4000 м дымка 8/0
[Ac trans]
+16.0 +15.1 94 +15 +16 1019.4 1012.0 +14.5 +17.4 3
15 19.07 В 4 10 км 9/0
[Ac As]
+19.9 +14.8 72 +22 +25 комфорт 1019.1 1011.7
18 19.07 СВ 5 10 км 9/5 900 м
[Sc Ac As]
+21.3 +15.7 70 +25 +25 комфорт 1016.4 1009.0
21 19.07 штиль 0 10 км 9/6 900 м
[Sc Ac As]
+20.7 +16.8 78 +24 +24 комфорт 1015.7 1008.4
00 20.07 В 2 10 км 4/0
[Ac As]
+18.7 +16.4 86 +20 +20 1015.3 1007.8 +16.0 +22.2
03 20.07 В 3 10 км 1/0
[Ac trans]
+17.7 +16.4 92 +18 +18 1015.2 1007.8
06 20.07 В 3 10 км 8/0
[Ac As]
+17.0 +15.8 93 +17 +17 1014.4 1007.0
09 20.07 В 3 10 км 5/0
[Ac As]
+16.7 +15.3 91 +17 +17 1013.8 1006.5
12 20.07 СВ 3 8000 м дымка 10/0
[Ac As]
+17.2 +14.6 85 +17 +17 1014.4 1007.0 +16.0 +18.8
15 20.07 СВ 6 10 км 5/0
[Ac cuf]
+22.2 +15.1 64 +26 +28 душно 1013.9 1006.6
18 20.07 СВ 6 7000 м дым 5/0
[Ac und]
+26.3 +16.4 54 +30 +32 душно 1010.1 1002.9
21 20.07 СВ 4 6000 м дым ясно +25.7 +17.0 59 +30 +30 душно 1007.8 1000.6
00 21.07 СВ 4 9000 м дым ясно +23.2 +17.6 71 +29 +29 душно 1007.7 1000.5 +17.0 +27.1
03 21.07 СВ 7 10 км ясно +21.9 +17.2 75 +26 +26 душно 1007.5 1000.2
06 21.07 СВ 7 10 км ясно +22.3 +16.1 68 +26 +26 жарко 1005.7 998.6
09 21.07 СВ 8 10 км 9/0
[Ac trans]
+22.8 +15.0 61 +27 +27 душно 1004.7 997.6
12 21.07 СВ 9 10 км ясно +22.2 +14.3 61 +25 +26 комфорт 1005.1 997.8 +21.3 +23.2
15 21.07 СВ 10 10 км ясно +26.5 +15.1 50 +29 +30 жарко 1004.4 997.3
18 21.07 СВ 10 7000 м дым ясно +29.4 +16.0 44 +32 +33 душно 1000.0 993.0
21 21.07 С 5
{11}
5000 м дым 6/0
[Ac As Cs]
+27.1 +16.6 53 +31 +31 душно 1000.6 993.4
00 22.07 СВ 4 8000 м дым 9/0
[Ac As Cs]
+25.0 +16.1 58 +28 +28 жарко 1003.4 996.2 +22.2 +30.0
03 22.07 С 4 9000 м дым 5/0
[Ac cast Cs]
+23.8 +15.4 59 +27 +27 жарко 1004.9 997.8
06 22.07 С 7 9000 м дым 8/0
[Ac cast Cs]
+24.3 +14.3 54 +27 +27 жарко 1004.3 997.3
09 22.07 С 8
{12}
9000 м зарница туман 8/1 1500 м
[Cb cap Ac As Cs]
+23.7 +13.5 53 +26 +26 жарко 1005.4 998.2
12 22.07 СЗ 2 10 км 8/0
[Ac As Cs]
+21.2 +15.2 69 +24 +25 комфорт 1008.7 1001.4 +20.8 +25.0
15 22.07 СЗ 5 10 км 6/0
[Ac As]
+25.9 +15.7 53 +29 +32 душно 1009.7 1002.6
18 22.07 З 3 7000 м дым 8/4 1200 м
[Sc Ac As]
+26.6 +17.1 56 +31 +32 душно 1008.8 1001.7
21 22.07 ЮЗ 6 6000 м дым 10/6 450 м
[Sc Ac As]
+18.7 +15.2 80 +19 +19 1011.3 1004.1
00 23.07 Ю 6 10 км 10/10 330 м
[Sc]
+16.4 +13.8 85 +15 +15 1013.7 1006.4 +16.4 +27.6
03 23.07 Ю 5 10 км 10/10 210 м
[St]
+15.1 +12.6 85 +14 +14 1015.6 1008.2
06 23.07 Ю 6 10 км 10/10 210 м
[St]
+14.4 +12.4 88 +13 +13 1014.5 1007.2
09 23.07 Ю 7 4000 м гроза, ливневой дождь 10/9 240 м
[Cb cap As op]
+13.4 +12.5 94 +11 +11 1014.4 1007.0
12 23.07 ЮЗ 4 8000 м в посл. час дождь {гроза} 10/10 240 м
[Sc]
+13.5 +12.6 94 +12 +12 1016.0 1008.6 +12.3 +16.5 11

 

Местоположение метеостанции Корриентес (Аргентина): широта -27.45 долгота -58.76 высота над уровнем моря 62 м.

В архиве по умолчанию представлена погода в Корриентесе за последнюю неделю. Архивные данные за месяц целиком и за предыдущие месяцы, начиная с января 2011 года, Вы можете получить, выбрав интересующий диапазон дат из раскрывающегося списка и нажав кнопку "Ввод!".


*Определитесь, кто Вы:
робот инопланетянин человек

Внимание! Время в таблицах - всемирное. Для получения местного времени необходимо прибавить поправку, которая равна -3 ч.

Смотрите также архив погоды в соседних городах и на ближайших метеорологических станциях:

Погода в Ресистенсии (Аргентина) (29 км)
Погода в Пиларе (Парагвай) (80 км)
Погода в Формосе (Аргентина) (149 км)
Погода в Сан Хуан Батистута (Парагвай) (182 км)
Погода в Пресиденсиа-Роке-Саэнс-Пеньи (Аргентина) (188 км)
Погода в Реконкисте (Аргентина) (213 км)
Погода в Куйкуйо (Парагвай) (223 км)
Погода в Парагуари (Парагвай) (259 км)
Погода в Асунсьоне (Парагвай) (275 км)
Погода в Посадасе (Аргентина) (277 км)

Пояснения к столбцам:

Ветер - указаны скорость ветра в м/с - средняя за 10 мин, порывы в срок и между сроками (в фигурных скобках) и направление, откуда дует ветер: С - северный, СВ - северо-восточный, В - восточный, ЮВ - юго-восточный, Ю - южный, ЮЗ - юго-западный, З - западный, СЗ - северо-западный.
Видимость - горизонтальная дальность видимости в метрах или километрах. При видимости от 1 до 10 км при отсутствии осадков обычно наблюдается дымка, при ухудшении видимости до 1 км и менее - туман. В сухую погоду видимость может ухудшаться дымом, пылью или мглою.
Явления - указаны атмосферные явления, наблюдавшиеся в срок или в последний час перед сроком; фигурными скобками обозначены явления, наблюдавшиеся между сроками (за 1-3 часа до срока); квадратными скобками обозначены град или гололедные отложения с указанием их диаметра в мм.
Облачность - указаны через наклонную черту общая и нижняя облачность в баллах и высота нижней границы облаков в метрах; квадратными скобками обозначены формы облаков: Ci - перистые, Cs - перисто-слоистые, Cc - перисто-кучевые, Ac - высококучевые, As - высокослоистые, Sc - слоисто-кучевые, Ns - слоисто-дождевые, Cu - кучевые, Cb - кучево-дождевые. Подробнее классификацию облаков см. в Атласе облаков (PDF).
T - Температура воздуха - температура, измеренная на высоте 2 м над землей.
Td - Температура точки росы - температура, при понижении до которой содержащийся в воздухе водяной пар достигнет насыщения.
f - Относительная влажность воздуха - влажноcть воздуха, измеренная на высоте 2 м над землей.
Te - Эффективная температура - температура, которую ощущает одетый по сезону человек в тени. Характеристика душности погоды. При расчете учитывается влияние влажности воздуха и скорости ветра на теплоощущения человека.
Tes - Эффективная температура на солнце - температура, которую ощущает человек, с поправкой на солнечный нагрев. Характеристика знойности погоды. Зависит от высоты солнца над горизонтом, облачности и скорости ветра. Ночью, в пасмурную погоду, а также при ветре 12 м/с и более поправка равна нулю.
P - Атмосферное давление - приведенное к уровню моря атмосферное давление.
Po - Атмосферное давление - измеренное на уровне метеостанции атмосферное давление.
Tmin - Минимальная температура - минимум температуры воздуха на высоте 2 м над землей.
Tmax - Максимальная температура - максимум температуры воздуха на высоте 2 м над землей.
R - Количество осадков - Количество выпавших осадков за период времени, мм. При наведении курсора мыши на число - период времени, за который выпало указанное количество осадков.
R24 - Количество осадков - Количество выпавших осадков за 24 часа, мм.
S - Снежный покров - Высота снежного покрова, см. При наведении курсора мыши на число - состояние снежного покрова и степень покрытия местности в баллах.